AFR55FL LFPG-LEVC

Flight info

Callsign AFR55FL
Flight time N/A
Altitude 35000
Route ERIXU DCT ETAMO DCT GUERE DCT EVPOK DCT AGN DCT ANETO DCT POSSY DCT ROCME DCT SEROX N860 SAURA
Aircraft E190/M-SDE3GILORVW/S

Departure

Time 2026-05-08 10:41
Airport Charles de Gaulle International Airport (LFPG)

Arrival

Time N/A
Airport Valencia Airport (LEVC)
Time Latitude Longitude Altitude Speed Heading
2026-05-08 10:27 49.00446 2.59997 353 ft 2 kts 85°
2026-05-08 10:27 49.00447 2.59965 356 ft 4 kts 135°
2026-05-08 10:27 49.00468 2.59950 359 ft 2 kts 175°
2026-05-08 10:28 49.00469 2.59950 358 ft 2 kts 175°
2026-05-08 10:30 49.00468 2.59950 359 ft 0 kts 175°
2026-05-08 10:30 49.00455 2.59952 363 ft 4 kts 175°
2026-05-08 10:30 49.00414 2.59957 353 ft 8 kts 175°
2026-05-08 10:30 49.00390 2.59947 360 ft 3 kts 193°
2026-05-08 10:31 49.00377 2.59943 355 ft 4 kts 192°
2026-05-08 10:31 49.00338 2.59917 358 ft 7 kts 229°
2026-05-08 10:31 49.00324 2.59842 353 ft 10 kts 255°
2026-05-08 10:31 49.00320 2.59756 353 ft 7 kts 265°
2026-05-08 10:32 49.00319 2.59731 353 ft 0 kts 266°
2026-05-08 10:32 49.00319 2.59729 355 ft 0 kts 266°
2026-05-08 10:32 49.00318 2.59711 356 ft 3 kts 265°
2026-05-08 10:32 49.00318 2.59703 353 ft 0 kts 265°
2026-05-08 10:34 49.00317 2.59677 353 ft 6 kts 265°
2026-05-08 10:34 49.00286 2.59626 353 ft 7 kts 201°
2026-05-08 10:34 49.00250 2.59625 353 ft 6 kts 178°
2026-05-08 10:34 49.00189 2.59624 353 ft 13 kts 181°
2026-05-08 10:35 49.00090 2.59591 356 ft 16 kts 238°
2026-05-08 10:35 49.00069 2.59413 353 ft 19 kts 264°
2026-05-08 10:35 49.00058 2.59202 357 ft 21 kts 263°
2026-05-08 10:35 49.00046 2.58971 358 ft 22 kts 266°
2026-05-08 10:36 49.00034 2.58743 353 ft 22 kts 265°
2026-05-08 10:36 49.00022 2.58515 353 ft 22 kts 265°
2026-05-08 10:36 49.00010 2.58288 354 ft 21 kts 265°
2026-05-08 10:36 48.99999 2.58067 353 ft 21 kts 265°
2026-05-08 10:37 48.99988 2.57845 362 ft 21 kts 264°
2026-05-08 10:37 48.99975 2.57622 360 ft 21 kts 265°
2026-05-08 10:37 48.99963 2.57398 353 ft 21 kts 265°
2026-05-08 10:37 48.99951 2.57174 357 ft 21 kts 265°
2026-05-08 10:38 48.99937 2.56949 353 ft 21 kts 265°
2026-05-08 10:38 48.99926 2.56724 353 ft 21 kts 265°
2026-05-08 10:38 48.99914 2.56499 359 ft 21 kts 265°
2026-05-08 10:38 48.99904 2.56276 353 ft 21 kts 265°
2026-05-08 10:39 48.99892 2.56054 353 ft 21 kts 265°
2026-05-08 10:39 48.99888 2.55837 353 ft 19 kts 240°
2026-05-08 10:39 48.99775 2.55803 359 ft 17 kts 177°
2026-05-08 10:39 48.99658 2.55817 355 ft 17 kts 176°
2026-05-08 10:40 48.99609 2.55981 352 ft 26 kts 87°
2026-05-08 10:40 48.99639 2.56602 359 ft 93 kts 86°
2026-05-08 10:40 48.99707 2.57903 366 ft 150 kts 85°
2026-05-08 10:40 48.99797 2.59623 845 ft 170 kts 84°
2026-05-08 10:41 48.99878 2.61489 1696 ft 183 kts 87°
2026-05-08 10:41 48.99931 2.63485 2556 ft 198 kts 88°
2026-05-08 10:41 49.00012 2.65816 2950 ft 246 kts 85°
2026-05-08 10:41 49.00191 2.68399 3521 ft 247 kts 82°
2026-05-08 10:42 49.00415 2.71081 3959 ft 265 kts 84°
2026-05-08 10:42 49.00534 2.73972 4398 ft 280 kts 88°
2026-05-08 10:42 49.00563 2.76957 5091 ft 284 kts 90°
2026-05-08 10:42 49.00397 2.79989 5730 ft 289 kts 97°
2026-05-08 10:43 49.00129 2.83048 6339 ft 294 kts 98°
2026-05-08 10:43 48.99824 2.86143 6916 ft 299 kts 98°
2026-05-08 10:43 48.99453 2.89280 7472 ft 302 kts 108°
2026-05-08 10:43 48.98412 2.92050 7976 ft 305 kts 135°
2026-05-08 10:44 48.96670 2.93846 8504 ft 304 kts 162°
2026-05-08 10:44 48.94597 2.94263 9079 ft 302 kts 188°
2026-05-08 10:44 48.92638 2.93207 9656 ft 301 kts 216°
2026-05-08 10:44 48.91202 2.90906 10093 ft 308 kts 241°
2026-05-08 10:45 48.90498 2.87809 10453 ft 316 kts 256°
2026-05-08 10:45 48.89999 2.84463 10621 ft 332 kts 257°
2026-05-08 10:45 48.89498 2.80985 11002 ft 339 kts 257°
2026-05-08 10:45 48.88736 2.77590 11492 ft 342 kts 245°
2026-05-08 10:46 48.87601 2.74404 11999 ft 344 kts 239°
2026-05-08 10:46 48.86276 2.71355 12502 ft 347 kts 234°
2026-05-08 10:46 48.84814 2.68419 13013 ft 350 kts 231°
2026-05-08 10:46 48.83256 2.65566 13532 ft 352 kts 229°
2026-05-08 10:47 48.81645 2.62747 14030 ft 355 kts 229°
2026-05-08 10:47 48.79996 2.59944 14513 ft 356 kts 228°
2026-05-08 10:47 48.78322 2.57169 14976 ft 358 kts 226°
2026-05-08 10:47 48.76529 2.54594 15425 ft 361 kts 223°
2026-05-08 10:48 48.74694 2.51991 15883 ft 363 kts 223°
2026-05-08 10:48 48.72830 2.49397 16331 ft 365 kts 223°
2026-05-08 10:48 48.70957 2.46787 16784 ft 367 kts 223°
2026-05-08 10:48 48.69069 2.44169 17248 ft 369 kts 223°
2026-05-08 10:49 48.67172 2.41534 17752 ft 371 kts 223°
2026-05-08 10:49 48.65258 2.38885 18211 ft 374 kts 223°
2026-05-08 10:49 48.63337 2.36220 18653 ft 376 kts 223°
2026-05-08 10:49 48.61402 2.33547 19078 ft 378 kts 223°
2026-05-08 10:50 48.59464 2.30864 19508 ft 380 kts 223°
2026-05-08 10:50 48.57506 2.28166 19927 ft 382 kts 223°
2026-05-08 10:50 48.55539 2.25452 20349 ft 384 kts 223°
2026-05-08 10:50 48.53558 2.22725 20741 ft 386 kts 223°
2026-05-08 10:51 48.51505 2.20095 21078 ft 389 kts 214°
2026-05-08 10:51 48.49005 2.18521 21431 ft 394 kts 193°
2026-05-08 10:51 48.46255 2.18412 21786 ft 399 kts 175°
2026-05-08 10:51 48.43496 2.19018 22118 ft 402 kts 173°
2026-05-08 10:52 48.40728 2.19741 22443 ft 404 kts 172°
2026-05-08 10:52 48.37932 2.20181 22755 ft 404 kts 179°
2026-05-08 10:52 48.35123 2.20466 23095 ft 407 kts 178°
2026-05-08 10:52 48.32292 2.20696 23416 ft 408 kts 179°
2026-05-08 10:53 48.29444 2.20970 23738 ft 411 kts 176°
2026-05-08 10:53 48.26601 2.21592 24010 ft 414 kts 174°
2026-05-08 10:53 48.23743 2.22239 24275 ft 417 kts 173°
2026-05-08 10:53 48.20873 2.22938 24547 ft 419 kts 173°
2026-05-08 10:54 48.17987 2.23636 24788 ft 421 kts 173°
2026-05-08 10:54 48.15084 2.24338 25046 ft 424 kts 174°
2026-05-08 10:54 48.12164 2.25045 25303 ft 426 kts 174°
2026-05-08 10:54 48.09227 2.25716 25537 ft 428 kts 175°
2026-05-08 10:55 48.06270 2.26060 25762 ft 428 kts 180°
2026-05-08 10:55 48.03324 2.26306 25976 ft 430 kts 180°
2026-05-08 10:55 48.00292 2.26498 26203 ft 431 kts 180°
2026-05-08 10:55 47.97292 2.26692 26353 ft 434 kts 181°
2026-05-08 10:56 47.94264 2.26879 26537 ft 437 kts 181°
2026-05-08 10:56 47.91263 2.27068 26735 ft 438 kts 181°
2026-05-08 10:56 47.88209 2.27261 26927 ft 440 kts 181°
2026-05-08 10:56 47.85143 2.27452 27116 ft 442 kts 181°
2026-05-08 10:57 47.82064 2.27648 27301 ft 444 kts 181°
2026-05-08 10:57 47.78973 2.27844 27466 ft 445 kts 181°
2026-05-08 10:57 47.72733 2.28237 27701 ft 452 kts 181°
2026-05-08 10:58 47.69586 2.28437 27879 ft 453 kts 181°
2026-05-08 10:58 47.66427 2.28634 28058 ft 455 kts 181°
2026-05-08 10:58 47.63256 2.28836 28237 ft 457 kts 181°
2026-05-08 10:58 47.60073 2.29035 28412 ft 459 kts 181°
2026-05-08 10:59 47.56877 2.29235 28576 ft 461 kts 181°
2026-05-08 10:59 47.53662 2.29439 28688 ft 464 kts 181°
2026-05-08 10:59 47.50431 2.29639 28863 ft 466 kts 181°
2026-05-08 10:59 47.47194 2.29845 29024 ft 467 kts 181°
2026-05-08 11:00 47.43938 2.30047 29212 ft 469 kts 181°
2026-05-08 11:00 47.40671 2.30251 29447 ft 469 kts 181°
2026-05-08 11:00 47.37416 2.30455 29674 ft 469 kts 181°
2026-05-08 11:00 47.34148 2.30657 29808 ft 472 kts 181°
2026-05-08 11:01 47.30862 2.30863 29995 ft 473 kts 181°
2026-05-08 11:01 47.27573 2.31066 30211 ft 473 kts 181°
2026-05-08 11:01 47.24284 2.31271 30418 ft 473 kts 182°
2026-05-08 11:01 47.20996 2.31476 30628 ft 473 kts 182°
2026-05-08 11:02 47.17711 2.31678 30817 ft 473 kts 182°
2026-05-08 11:02 47.11133 2.32085 31106 ft 474 kts 182°
2026-05-08 11:02 47.07838 2.32287 31296 ft 474 kts 182°
2026-05-08 11:03 47.04545 2.32492 31480 ft 474 kts 182°
2026-05-08 11:03 47.01254 2.32693 31658 ft 473 kts 182°
2026-05-08 11:03 46.97963 2.32897 31830 ft 473 kts 182°
2026-05-08 11:03 46.94674 2.33098 31968 ft 473 kts 182°
2026-05-08 11:04 46.91372 2.33301 31985 ft 477 kts 182°
2026-05-08 11:04 46.88057 2.33501 32144 ft 476 kts 183°
2026-05-08 11:04 46.84767 2.33333 32288 ft 471 kts 191°
2026-05-08 11:04 46.81535 2.32686 32459 ft 466 kts 197°
2026-05-08 11:05 46.78405 2.31544 32635 ft 463 kts 199°
2026-05-08 11:05 46.75281 2.30392 32799 ft 462 kts 200°
2026-05-08 11:05 46.72179 2.29195 32981 ft 462 kts 200°
2026-05-08 11:05 46.69072 2.27999 33166 ft 462 kts 200°
2026-05-08 11:06 46.65967 2.26806 33357 ft 461 kts 200°
2026-05-08 11:06 46.62866 2.25613 33542 ft 461 kts 200°
2026-05-08 11:06 46.59767 2.24427 33756 ft 460 kts 200°
2026-05-08 11:06 46.56672 2.23242 33952 ft 460 kts 200°
2026-05-08 11:07 46.53580 2.22059 34105 ft 459 kts 200°
2026-05-08 11:07 46.50539 2.20899 34318 ft 457 kts 200°
2026-05-08 11:07 46.47467 2.19728 34509 ft 456 kts 200°
2026-05-08 11:07 46.44400 2.18562 34693 ft 455 kts 200°
2026-05-08 11:08 46.41349 2.17401 34845 ft 447 kts 200°
2026-05-08 11:08 46.35347 2.15121 34967 ft 449 kts 200°
2026-05-08 11:09 46.29272 2.12824 35000 ft 451 kts 200°
2026-05-08 11:09 46.23222 2.10537 34985 ft 449 kts 201°
2026-05-08 11:10 46.17546 2.07126 34996 ft 439 kts 214°
2026-05-08 11:10 46.12496 2.02365 34975 ft 432 kts 220°
2026-05-08 11:11 46.07571 1.97411 34977 ft 431 kts 220°
2026-05-08 11:11 46.02668 1.92474 34987 ft 430 kts 220°
2026-05-08 11:12 45.97760 1.87545 34980 ft 430 kts 220°
2026-05-08 11:12 45.92857 1.82632 34977 ft 428 kts 220°
2026-05-08 11:13 45.87961 1.77739 34982 ft 429 kts 220°
2026-05-08 11:13 45.83061 1.72855 34992 ft 429 kts 220°
2026-05-08 11:14 45.78159 1.67975 34979 ft 429 kts 220°
2026-05-08 11:14 45.73264 1.63113 34986 ft 427 kts 219°
2026-05-08 11:15 45.68374 1.58271 34982 ft 427 kts 219°
2026-05-08 11:15 45.63493 1.53441 34985 ft 426 kts 219°
2026-05-08 11:16 45.58612 1.48631 34982 ft 426 kts 219°
2026-05-08 11:16 45.53745 1.43838 34981 ft 424 kts 218°
2026-05-08 11:17 45.48818 1.39299 34978 ft 428 kts 210°
2026-05-08 11:17 45.43192 1.36326 34980 ft 435 kts 198°
2026-05-08 11:18 45.37293 1.34325 34961 ft 436 kts 197°
2026-05-08 11:18 45.31415 1.32414 34987 ft 434 kts 197°
2026-05-08 11:19 45.26517 1.30827 34961 ft 434 kts 197°
2026-05-08 11:19 45.20635 1.28923 34976 ft 434 kts 197°
2026-05-08 11:20 45.14768 1.27029 34966 ft 430 kts 197°
2026-05-08 11:20 45.08925 1.25148 34969 ft 431 kts 197°
2026-05-08 11:21 45.03080 1.23267 34968 ft 430 kts 197°
2026-05-08 11:21 44.97240 1.21393 34964 ft 428 kts 197°
2026-05-08 11:22 44.91453 1.19540 34963 ft 427 kts 197°
2026-05-08 11:22 44.85655 1.17687 34967 ft 427 kts 197°
2026-05-08 11:23 44.79857 1.15838 34973 ft 427 kts 197°
2026-05-08 11:23 44.74065 1.13992 34962 ft 425 kts 196°
2026-05-08 11:24 44.68302 1.12164 34959 ft 425 kts 196°
2026-05-08 11:24 44.62538 1.10337 34966 ft 425 kts 196°
2026-05-08 11:25 44.56784 1.08516 34961 ft 423 kts 196°
2026-05-08 11:25 44.51037 1.06702 34950 ft 423 kts 196°
2026-05-08 11:26 44.45291 1.04891 34957 ft 423 kts 196°
2026-05-08 11:26 44.39550 1.03085 34945 ft 422 kts 196°
2026-05-08 11:27 44.33821 1.01289 34958 ft 422 kts 196°
2026-05-08 11:27 44.28094 0.99494 34952 ft 422 kts 196°
2026-05-08 11:28 44.22364 0.97704 34944 ft 422 kts 195°
2026-05-08 11:28 44.16640 0.95920 34954 ft 421 kts 195°
2026-05-08 11:29 44.10915 0.94136 34941 ft 421 kts 195°
2026-05-08 11:29 44.05232 0.92372 34944 ft 421 kts 195°
2026-05-08 11:30 43.99518 0.90597 34934 ft 420 kts 195°
2026-05-08 11:30 43.93804 0.88831 34940 ft 421 kts 195°
2026-05-08 11:31 43.88088 0.87106 34939 ft 421 kts 194°
2026-05-08 11:31 43.82334 0.85547 34923 ft 421 kts 194°
2026-05-08 11:32 43.76599 0.84014 34939 ft 420 kts 194°
2026-05-08 11:32 43.70860 0.82483 34935 ft 420 kts 194°
2026-05-08 11:33 43.65124 0.80955 34934 ft 420 kts 193°
2026-05-08 11:33 43.59395 0.79430 34938 ft 418 kts 193°
2026-05-08 11:34 43.53681 0.77914 34933 ft 419 kts 193°
2026-05-08 11:34 43.47962 0.76399 34945 ft 418 kts 193°
2026-05-08 11:35 43.42255 0.74890 34918 ft 417 kts 193°
2026-05-08 11:35 43.36568 0.73388 34938 ft 416 kts 193°
2026-05-08 11:36 43.30876 0.71888 34927 ft 416 kts 192°
2026-05-08 11:36 43.25185 0.70392 34932 ft 417 kts 192°
2026-05-08 11:37 43.19507 0.68900 34924 ft 415 kts 192°
2026-05-08 11:37 43.13834 0.67414 34929 ft 415 kts 192°
2026-05-08 11:38 43.08161 0.65932 34944 ft 415 kts 192°
2026-05-08 11:38 43.02488 0.64452 34933 ft 415 kts 192°
2026-05-08 11:39 42.96841 0.62981 34955 ft 412 kts 192°
2026-05-08 11:39 42.91219 0.61518 34940 ft 411 kts 192°
2026-05-08 11:40 42.85578 0.60054 34962 ft 414 kts 192°
2026-05-08 11:40 42.79935 0.58593 34986 ft 413 kts 192°
2026-05-08 11:41 42.74295 0.57132 34978 ft 413 kts 192°
2026-05-08 11:41 42.68802 0.55085 34974 ft 412 kts 199°
2026-05-08 11:42 42.63516 0.52109 34998 ft 412 kts 205°
2026-05-08 11:42 42.58327 0.48814 35003 ft 411 kts 205°
2026-05-08 11:43 42.53151 0.45502 34990 ft 412 kts 205°
2026-05-08 11:43 42.47973 0.42196 35020 ft 411 kts 205°
2026-05-08 11:44 42.42797 0.38900 35006 ft 411 kts 205°
2026-05-08 11:44 42.37601 0.35595 34995 ft 414 kts 204°
2026-05-08 11:45 42.32382 0.32284 35015 ft 414 kts 204°
2026-05-08 11:45 42.27165 0.28979 35001 ft 414 kts 204°
2026-05-08 11:46 42.21941 0.25678 35010 ft 414 kts 204°
2026-05-08 11:46 42.16724 0.22384 35003 ft 413 kts 204°
2026-05-08 11:47 42.11512 0.19100 35012 ft 414 kts 204°
2026-05-08 11:47 42.06122 0.16496 35009 ft 413 kts 189°
2026-05-08 11:48 42.00421 0.16257 35011 ft 414 kts 178°
2026-05-08 11:48 41.94689 0.16712 35003 ft 411 kts 178°
2026-05-08 11:49 41.88978 0.17206 35008 ft 412 kts 178°
2026-05-08 11:49 41.83263 0.17703 35008 ft 411 kts 178°
2026-05-08 11:50 41.77550 0.18200 35009 ft 411 kts 178°
2026-05-08 11:50 41.71844 0.18690 35010 ft 411 kts 178°
2026-05-08 11:51 41.66136 0.19181 35007 ft 411 kts 178°
2026-05-08 11:51 41.60432 0.19671 35002 ft 411 kts 178°
2026-05-08 11:52 41.54727 0.20159 35000 ft 410 kts 179°
2026-05-08 11:52 41.49039 0.20645 35001 ft 410 kts 179°
2026-05-08 11:53 41.43348 0.21131 34986 ft 410 kts 179°
2026-05-08 11:53 41.37656 0.21583 34997 ft 409 kts 181°
2026-05-08 11:54 41.32004 0.21207 34982 ft 405 kts 193°
2026-05-08 11:54 41.26458 0.19850 34992 ft 405 kts 192°
2026-05-08 11:55 41.20917 0.18483 34992 ft 405 kts 192°
2026-05-08 11:55 41.15377 0.17111 34983 ft 405 kts 193°
2026-05-08 11:56 41.09934 0.15286 34991 ft 402 kts 198°
2026-05-08 11:56 41.04578 0.13146 34977 ft 402 kts 199°
2026-05-08 11:57 40.99224 0.10983 34982 ft 402 kts 199°
2026-05-08 11:57 40.93871 0.08826 34974 ft 402 kts 199°
2026-05-08 11:58 40.88567 0.06696 34986 ft 399 kts 199°
2026-05-08 11:58 40.83258 0.04564 34987 ft 399 kts 199°
2026-05-08 11:59 40.75293 0.01375 34979 ft 399 kts 199°
2026-05-08 11:59 40.69973 -0.00748 34997 ft 400 kts 199°
2026-05-08 12:00 40.64660 -0.02867 34982 ft 399 kts 199°
2026-05-08 12:00 40.59347 -0.04983 34997 ft 399 kts 199°
2026-05-08 12:01 40.54032 -0.07095 34982 ft 399 kts 199°
2026-05-08 12:01 40.48720 -0.09203 34989 ft 399 kts 199°
2026-05-08 12:02 40.43411 -0.11305 34979 ft 397 kts 199°
2026-05-08 12:02 40.38112 -0.13403 34978 ft 398 kts 199°
2026-05-08 12:03 40.32812 -0.15495 34973 ft 398 kts 199°
2026-05-08 12:03 40.27507 -0.17550 34958 ft 398 kts 199°
2026-05-08 12:04 40.24867 -0.18638 34217 ft 390 kts 200°
2026-05-08 12:04 40.22335 -0.19665 33271 ft 372 kts 200°
2026-05-08 12:04 40.19911 -0.20658 32307 ft 360 kts 200°
2026-05-08 12:04 40.17511 -0.21641 31413 ft 366 kts 200°
2026-05-08 12:05 40.15890 -0.22301 30854 ft 372 kts 200°
2026-05-08 12:05 40.13392 -0.23318 30033 ft 376 kts 200°
2026-05-08 12:05 40.10903 -0.24330 29091 ft 371 kts 200°
2026-05-08 12:05 40.08473 -0.25318 28165 ft 361 kts 200°
2026-05-08 12:06 40.06090 -0.26285 27294 ft 356 kts 200°
2026-05-08 12:06 40.03747 -0.27283 26417 ft 352 kts 201°
2026-05-08 12:06 40.01407 -0.28190 25541 ft 349 kts 199°
2026-05-08 12:06 39.99089 -0.29065 24696 ft 344 kts 199°
2026-05-08 12:07 39.96800 -0.29919 23880 ft 340 kts 199°
2026-05-08 12:07 39.94537 -0.30758 22984 ft 336 kts 199°
2026-05-08 12:07 39.92309 -0.31583 22048 ft 331 kts 199°
2026-05-08 12:07 39.90113 -0.32401 21152 ft 326 kts 199°
2026-05-08 12:08 39.87942 -0.33205 20251 ft 320 kts 200°
2026-05-08 12:08 39.85812 -0.34002 19393 ft 318 kts 200°
2026-05-08 12:08 39.83686 -0.34758 18569 ft 315 kts 198°
2026-05-08 12:08 39.81587 -0.35542 17679 ft 313 kts 201°
2026-05-08 12:09 39.79663 -0.36777 16765 ft 308 kts 221°
2026-05-08 12:09 39.78396 -0.38966 15903 ft 305 kts 247°
2026-05-08 12:09 39.78056 -0.41678 15060 ft 308 kts 269°
2026-05-08 12:09 39.78211 -0.44451 14240 ft 307 kts 272°
2026-05-08 12:10 39.78363 -0.47195 13368 ft 302 kts 269°
2026-05-08 12:10 39.78360 -0.49922 12451 ft 302 kts 266°
2026-05-08 12:10 39.78245 -0.52652 11566 ft 303 kts 260°
2026-05-08 12:10 39.77856 -0.55339 10703 ft 303 kts 257°
2026-05-08 12:11 39.77414 -0.57981 9877 ft 303 kts 255°
2026-05-08 12:11 39.76872 -0.60588 8958 ft 293 kts 248°
2026-05-08 12:11 39.76117 -0.63003 8055 ft 285 kts 245°
2026-05-08 12:11 39.75324 -0.65337 7176 ft 280 kts 244°
2026-05-08 12:12 39.74456 -0.67580 6328 ft 276 kts 237°
2026-05-08 12:12 39.73410 -0.69652 5457 ft 273 kts 234°
2026-05-08 12:12 39.72331 -0.71666 4641 ft 271 kts 233°
2026-05-08 12:12 39.71194 -0.73575 4223 ft 261 kts 227°
2026-05-08 12:13 39.69932 -0.75262 4124 ft 261 kts 224°
2026-05-08 12:13 39.68539 -0.76768 4044 ft 259 kts 205°
2026-05-08 12:13 39.66809 -0.77217 4018 ft 257 kts 173°
2026-05-08 12:13 39.65095 -0.76629 4033 ft 253 kts 161°
2026-05-08 12:14 39.63437 -0.75795 4039 ft 259 kts 158°
2026-05-08 12:14 39.61791 -0.74828 4036 ft 260 kts 152°
2026-05-08 12:14 39.60343 -0.73428 4041 ft 260 kts 138°
2026-05-08 12:14 39.59082 -0.71740 4056 ft 261 kts 131°
2026-05-08 12:15 39.57951 -0.69903 4065 ft 262 kts 127°
2026-05-08 12:15 39.56907 -0.67968 4088 ft 262 kts 124°
2026-05-08 12:15 39.55903 -0.65990 4091 ft 263 kts 123°
2026-05-08 12:15 39.54962 -0.63956 4101 ft 264 kts 118°
2026-05-08 12:16 39.54134 -0.61836 4066 ft 264 kts 117°
2026-05-08 12:16 39.53322 -0.59708 4029 ft 263 kts 117°
2026-05-08 12:16 39.53007 -0.58884 4012 ft 263 kts 117°
2026-05-08 16:52 39.52578 -0.57753 4007 ft 272 kts 116°
2026-05-08 16:53 39.51637 -0.53033 3515 ft 275 kts 88°
2026-05-08 16:53 39.51911 -0.50596 3190 ft 274 kts 76°
2026-05-08 16:53 39.52502 -0.48294 3004 ft 268 kts 68°
2026-05-08 16:54 39.53297 -0.46146 2812 ft 262 kts 61°
2026-05-08 16:54 39.54279 -0.44161 2438 ft 263 kts 56°
2026-05-08 16:54 39.55370 -0.42268 2108 ft 262 kts 52°